Погода в Узгене

Киргизия     40°46′13″N   73°17′57″E
темп.,
°C
ветер,
м/с
пор.,
м/с
влажн.,
%
обл.,
%
осадки,
мм/ч
давл.,
гПа
погр.,
м
21 апреля, ср
ср2100:00+11юз3667100 0.4 1014223
03:00+10юв2372100 0.3 101399
06:00+9св1290100 2.5 101398
09:00+8ю5885100 14.1 1016716
12:00+9юв2379100 17.6 1017356
15:00+9ююв2475100 1.4 1016321
18:00+9ссв137782 3.1 1017256
21:00+7в228821 1.8 102031
22 апреля, чт
чт2200:00+5юв228636 3.0 102122
03:00+5св118799 0.8 102220
06:00+5вюв228518 1.6 102545
09:00+9в22675 0.1 1025665
12:00+13сз22475 0.1 10241699
15:00+14зсз333912 0.1 10241969
18:00+14зсз22404 0.1 10241684
21:00+8вюв23610 0.0 102632
23 апреля, пт
пт2300:00+7вюв33580 0.0 102740
03:00+5вюв33550 0.0 102636
06:00+5вюв33520 0.0 102641
09:00+11в23400 0.0 1025357
12:00+16с11320 0.0 10231420
15:00+18сз22280 0.0 10211904
18:00+17ссз22305 0.0 1021983
21:00+11в2349100 0.0 102332
24 апреля, сб
сб2400:00+8вюв334412 0.0 102237
03:00+7вюв33401 0.0 102229
06:00+6вюв3338100 0.0 102233
09:00+13в2336100 0.0 1021227
12:00+19с112484 0.0 10181059
15:00+20зсз2223100 0.0 10171565
18:00+18зсз233699 0.0 1018351
21:00+14вюв1237100 0.0 102114
25 апреля, вс
вс2500:00+13в2242100 0.0 102126
03:00+11вюв234641 0.0 102128
06:00+10вюв334311 0.0 102229
09:00+16всв23374 0.0 1021274
12:00+21ссз212410 0.0 10201178
15:00+22зсз22225 0.0 10181608
18:00+21ссз2233100 0.0 1018598
21:00+14вюв22410 0.0 102018